GFSMW_sfc_rhum_273.txt.gz
RH
15 16 19 20 22 24 34 48 54 63 63 65 65 62 63 59 60 60 70 73 80 78 80 76 78 79 73 69 73 76 76 73 82 75 76 73 72 74 74 66 65 64 63
24 24 25 27 35 34 30 32 45 54 61 58 62 59 60 58 57 60 72 72 80 79 81 83 85 84 81 82 85 85 77 72 81 82 85 91 73 66 70 70 75 75 66
30 28 28 34 41 48 48 34 32 43 57 63 63 65 64 64 65 64 68 72 74 80 82 88 90 91 92 92 93 90 84 82 91 91 89 98 88 73 58 71 75 80 84
31 30 31 34 38 54 56 50 41 36 51 67 64 72 66 65 62 64 66 71 76 84 87 88 89 90 93 92 91 88 90 90 90 96 94 90 89 89 75 64 73 74 78
36 43 43 47 46 60 67 67 56 52 42 61 67 72 72 65 71 74 78 77 81 80 81 84 91 90 91 89 87 85 91 93 94 95 95 96 95 95 99 94 76 74 73
40 49 53 56 58 63 73 75 69 61 64 54 73 74 77 75 81 82 84 87 82 85 85 80 85 89 90 91 91 94 96 98 97 96 96 96 96 86 97 97 90 83 78
50 56 56 59 69 77 81 82 80 76 80 72 73 74 78 78 74 79 82 85 87 90 94 95 98 97 95 95 94 94 94 95 96 96 97 96 97 96 93 97 95 86 84
37 38 46 51 62 80 81 88 87 90 88 83 84 81 78 77 77 78 85 96 97 97 95 94 91 87 87 86 87 87 90 92 95 92 91 90 89 89 92 97 97 96 82
35 30 31 42 49 76 82 90 88 92 93 94 92 93 93 96 97 97 96 96 94 93 95 93 88 85 84 83 84 84 87 87 86 86 86 88 86 90 88 89 94 97 95
33 30 31 40 46 57 80 89 90 91 90 90 91 94 95 94 94 93 94 94 93 93 95 95 85 81 78 78 79 78 75 75 76 77 78 82 81 85 86 92 88 88 95
34 30 29 32 39 48 74 86 90 90 91 90 92 92 92 91 90 90 89 85 84 87 87 86 76 75 76 75 74 74 72 73 79 77 75 78 76 81 81 84 84 86 89
32 28 28 32 40 50 68 85 90 89 90 87 88 88 86 82 81 79 77 77 77 77 80 79 76 75 76 75 75 74 72 74 85 82 80 81 67 76 76 77 81 88 84
31 28 31 34 40 54 70 82 84 87 92 86 84 88 87 84 80 81 85 82 74 72 71 72 75 78 78 76 76 74 72 74 78 76 78 78 75 79 78 77 78 80 77
31 30 34 38 48 60 67 83 85 83 82 89 88 85 84 86 88 86 82 78 72 74 77 75 74 77 74 76 74 72 75 72 73 78 77 76 76 80 82 78 81 78 81
32 34 42 44 53 66 66 81 89 91 86 85 86 89 92 90 86 85 81 80 80 79 74 74 74 71 74 81 85 78 78 78 79 77 77 80 84 88 91 81 80 80 82
34 38 42 46 58 66 69 76 86 91 87 89 93 88 90 89 90 89 88 85 83 80 76 74 73 72 66 87 88 85 83 79 83 82 77 72 73 76 90 91 91 91 82
40 45 49 56 66 69 71 78 85 84 87 88 91 92 91 92 91 90 88 88 85 78 74 74 73 78 81 84 80 84 74 77 76 76 73 70 66 74 66 72 80 77 85
42 49 55 65 70 72 75 78 81 86 87 87 87 89 90 86 78 78 78 74 69 72 73 72 73 78 77 86 85 81 70 72 71 69 66 66 65 66 70 66 68 68 71
48 57 63 67 72 81 85 87 90 89 88 90 89 85 85 86 83 83 86 79 68 75 80 78 81 82 77 78 76 71 66 64 66 61 66 69 69 81 87 80 71 71 72
47 59 63 68 75 81 82 87 90 90 92 88 89 86 91 83 89 93 83 79 81 82 80 67 69 74 68 74 73 66 53 62 58 57 59 80 77 80 83 80 74 72 69
53 64 70 81 88 84 82 90 91 97 97 95 91 88 88 94 95 95 94 86 67 61 66 67 67 63 69 67 73 72 58 64 63 62 68 66 73 75 76 78 69 77 86
61 71 78 89 86 83 84 92 96 100 97 96 95 96 98 100 99 92 78 61 60 64 67 68 72 70 65 72 72 72 73 72 65 68 70 71 76 76 76 76 79 78 84
71 76 81 91 90 86 87 96 100 100 98 97 97 97 97 94 88 84 74 73 63 68 68 70 74 72 70 72 71 71 72 72 73 71 76 76 75 74 74 74 74 77 80
79 76 93 95 97 98 99 100 100 100 99 98 97 94 92 90 81 76 73 76 75 74 73 74 78 76 73 75 73 74 73 73 76 79 79 78 76 73 76 77 80 80 78
93 97 98 97 99 100 99 100 100 98 96 92 88 88 86 81 76 75 83 80 80 75 78 82 79 86 87 86 77 79 81 83 82 81 80 83 82 81 78 74 73 72 72
95 97 98 96 98 97 97 98 98 90 86 80 79 83 77 71 66 68 76 72 73 71 72 74 78 82 74 73 75 76 76 76 76 79 84 86 86 84 80 80 79 76 77

GFSMW_sfc_rhum_276.txt.gz
RH
17 18 21 22 25 28 33 35 29 36 46 49 50 50 51 50 48 46 52 51 52 59 65 62 62 67 63 58 60 58 63 60 66 69 66 58 57 60 54 49 48 49 50
22 23 26 31 36 34 40 43 41 36 31 39 46 50 51 46 45 43 49 50 56 63 65 70 70 76 74 78 75 76 78 83 82 82 86 84 60 52 51 49 50 56 52
28 33 35 38 41 44 51 50 51 48 39 36 40 48 54 52 48 47 44 48 54 65 72 70 74 83 81 79 82 81 83 92 85 87 92 90 76 47 44 52 51 55 55
30 34 36 38 39 49 52 58 63 60 49 39 39 57 55 57 50 46 44 44 58 66 72 76 72 78 77 84 86 88 88 90 93 98 95 84 76 63 53 42 48 58 59
28 28 29 29 30 42 56 62 70 66 61 56 47 57 64 57 49 46 51 58 67 68 66 74 75 68 72 78 88 90 91 92 95 95 92 91 83 82 91 78 54 48 50
25 23 22 24 27 32 52 63 75 76 70 70 68 63 70 67 55 53 68 68 74 69 73 72 72 68 75 76 79 84 94 97 97 93 96 94 84 82 85 95 81 84 62
20 21 21 22 24 32 44 62 82 84 83 78 72 57 68 66 63 56 70 76 83 93 92 89 90 92 92 92 95 98 98 99 98 97 96 95 96 93 86 88 88 78 58
19 17 18 21 21 26 36 64 83 87 88 89 93 86 70 66 76 90 96 97 97 96 94 92 92 93 94 97 97 97 98 96 97 91 87 86 82 84 84 90 95 91 73
18 18 18 21 22 24 34 59 88 87 89 92 92 93 92 95 96 96 95 95 94 93 92 91 92 95 96 97 97 95 90 81 78 76 74 67 65 75 77 82 88 94 88
20 19 18 21 21 25 32 52 82 90 90 90 92 93 94 93 94 94 95 96 96 94 93 91 92 92 92 93 88 78 67 65 62 58 63 61 59 59 62 69 75 83 89
21 21 21 20 21 25 32 44 73 88 91 91 90 90 90 87 89 91 90 90 89 85 81 81 81 81 80 76 75 68 66 67 67 63 62 64 62 58 57 62 65 73 74
22 20 20 21 23 27 36 44 69 89 89 93 91 90 86 80 77 74 73 75 78 73 71 71 72 74 73 71 69 68 68 68 68 65 64 64 52 62 61 56 65 74 69
22 20 20 22 24 29 38 46 57 86 85 84 90 93 82 80 80 78 75 70 74 77 77 72 74 75 75 69 68 66 66 66 66 65 66 66 65 67 64 61 61 61 61
21 20 22 24 28 32 42 48 58 79 82 80 84 90 89 82 83 73 76 84 80 80 82 80 75 75 73 68 65 66 67 65 71 78 80 77 74 73 72 62 71 67 72
20 22 25 28 30 35 43 58 67 85 83 84 87 89 91 91 85 81 82 85 83 77 67 69 72 72 76 77 78 68 71 71 71 74 63 73 72 78 84 64 69 70 72
21 23 26 29 33 37 46 68 80 89 87 90 92 90 88 92 93 91 90 88 88 82 76 76 74 71 64 85 85 76 70 68 69 69 66 61 70 72 74 77 81 80 73
23 24 30 35 37 42 54 81 88 86 89 90 90 90 89 90 92 90 89 89 90 88 89 89 82 81 80 85 84 84 57 61 62 59 59 50 45 75 62 66 72 71 79
25 28 33 38 41 49 63 82 82 87 87 88 89 88 90 95 92 84 80 78 78 81 79 75 68 65 64 74 73 78 53 53 55 56 55 57 56 70 71 63 57 55 54
27 29 34 38 44 62 70 82 85 86 88 93 94 93 90 94 96 95 90 88 92 94 87 69 64 61 65 72 72 51 40 41 45 41 51 56 56 71 74 62 58 57 56
24 29 38 41 55 68 75 82 86 87 92 95 98 98 98 98 97 99 100 99 97 78 57 51 55 62 56 72 72 58 38 45 39 43 43 67 66 73 74 67 60 61 61
25 38 44 57 71 76 78 88 94 97 99 97 95 96 96 98 97 96 93 83 61 52 53 52 54 53 63 59 71 71 47 52 48 47 52 50 71 74 73 74 60 71 71
30 48 53 71 77 79 83 94 98 100 99 98 98 100 100 100 94 85 82 76 71 63 56 55 60 57 52 67 68 69 69 68 55 59 62 64 72 71 71 70 74 72 78
47 53 61 80 87 86 88 97 100 100 100 99 99 99 96 84 73 74 73 68 61 62 60 61 65 64 61 64 67 66 67 68 68 67 73 71 71 69 70 68 69 73 76
62 67 83 93 96 97 99 100 100 100 100 100 97 88 78 71 67 65 66 70 72 70 68 68 71 71 69 70 70 71 70 71 76 79 80 73 75 69 72 77 74 74 76
78 89 92 93 98 100 100 100 100 100 100 88 84 78 68 67 66 75 78 74 78 75 74 77 74 82 85 85 76 76 80 82 80 82 82 82 80 79 75 71 69 69 68
86 91 96 96 98 100 100 100 100 85 77 74 68 68 64 62 59 64 70 70 70 67 69 71 74 79 68 67 69 70 69 71 70 78 82 84 83 81 77 76 75 72 74

GFSMW_sfc_rhum_279.txt.gz
RH
16 19 26 28 31 33 37 39 42 47 42 32 41 50 53 50 48 47 51 52 51 58 62 59 56 58 56 58 64 63 68 60 57 55 59 54 56 62 56 55 48 48 48
20 23 26 28 31 34 43 43 44 48 51 44 34 36 47 45 47 48 51 53 54 56 58 63 58 62 60 67 67 69 67 68 65 63 71 78 66 63 63 60 57 58 48
22 23 22 25 27 30 37 45 47 51 54 57 51 42 39 49 49 50 50 49 53 57 60 65 62 65 66 68 72 72 72 68 66 72 75 86 78 57 70 79 73 67 55
20 20 20 22 23 27 31 38 49 53 56 63 62 62 54 47 45 50 44 44 52 57 62 66 68 68 66 69 71 70 72 71 69 84 79 80 78 80 93 87 68 65 61
19 18 17 17 17 21 27 35 46 53 64 72 76 69 66 61 52 48 51 53 53 58 60 70 72 72 71 72 71 73 78 73 72 84 94 92 93 90 93 89 65 58 49
17 16 16 15 16 17 26 34 42 54 68 80 83 86 84 69 64 62 55 59 76 71 66 70 77 77 79 75 71 75 84 86 84 86 92 93 94 96 92 91 83 73 59
19 18 17 16 18 20 24 32 40 56 73 86 89 90 87 81 66 71 62 70 80 77 76 82 88 90 88 89 92 94 97 97 94 96 99 97 98 96 91 89 84 76 60
21 19 19 19 18 20 22 32 36 53 78 86 90 91 92 94 93 94 93 96 96 97 95 95 95 94 92 90 91 95 97 97 98 98 99 98 96 92 87 84 88 85 71
19 19 18 20 20 21 24 34 36 55 80 87 91 92 92 94 96 97 96 97 96 96 96 97 98 98 97 95 94 95 97 96 98 98 98 97 88 81 72 73 84 90 81
15 17 19 19 19 21 25 32 35 53 82 86 88 91 92 92 93 93 95 95 95 95 94 95 96 96 95 93 90 92 92 92 96 92 80 73 67 62 64 65 63 70 79
14 16 20 18 18 21 23 28 35 42 84 90 86 91 92 91 91 91 91 92 90 90 91 92 90 85 83 82 86 86 84 75 75 74 72 71 70 69 63 59 58 58 62
14 16 19 18 20 23 24 28 40 46 81 90 90 90 85 83 90 91 90 90 87 81 82 84 77 79 72 69 72 73 68 70 72 70 70 68 58 66 62 54 60 60 61
16 19 19 19 21 24 27 30 45 64 80 85 89 90 83 83 86 87 84 87 86 85 82 81 86 84 74 72 72 72 73 73 74 73 72 71 68 68 65 61 62 57 54
20 20 20 22 25 26 30 36 62 83 84 84 88 92 90 90 85 85 84 84 81 82 82 80 88 90 87 84 76 72 73 71 70 72 77 71 69 68 68 56 61 56 61
21 21 22 23 27 30 34 41 75 88 87 87 89 94 92 89 85 88 89 91 91 89 85 85 87 88 88 85 84 71 70 68 68 67 60 72 71 77 74 57 63 62 61
28 20 20 23 28 31 38 48 80 86 84 88 91 90 89 88 90 90 91 96 97 98 93 93 92 93 88 98 92 83 70 61 60 62 62 54 72 73 77 77 74 72 64
22 23 24 25 30 35 42 61 82 82 85 88 87 88 89 92 96 96 97 98 99 100 98 93 91 91 89 86 86 83 64 63 62 60 56 45 52 71 57 58 62 60 79
22 22 24 28 32 40 46 67 77 82 85 89 91 93 95 96 97 97 98 98 97 96 97 94 92 83 74 79 80 77 47 45 46 48 53 50 51 68 70 60 51 48 45
23 22 22 30 40 52 64 73 81 84 88 97 98 98 98 98 98 99 98 98 97 96 94 86 64 62 67 72 74 53 39 38 41 38 50 49 54 72 74 62 59 56 53
21 21 25 38 47 63 72 80 86 94 98 99 99 99 100 98 99 100 100 96 92 79 59 56 59 59 60 70 71 60 39 44 36 39 40 73 68 71 71 65 60 64 61
21 24 38 54 65 70 79 93 95 99 99 99 97 96 95 95 94 89 83 76 63 64 62 55 52 57 63 61 69 69 48 52 45 46 51 50 71 70 69 69 60 66 67
24 35 50 67 72 78 89 95 98 100 97 95 94 97 97 87 77 72 66 56 55 56 56 57 62 57 52 66 68 68 68 69 56 62 65 66 70 69 69 68 70 70 78
43 56 63 85 86 84 84 96 100 96 96 92 96 94 84 69 59 61 60 62 55 62 60 65 68 65 64 65 68 68 69 71 71 70 77 69 66 67 72 70 72 75 78
61 65 79 91 95 95 97 100 100 100 99 93 88 76 74 68 63 58 60 67 70 70 67 68 72 72 70 69 69 72 71 72 75 78 88 80 79 76 78 80 78 76 78
71 78 86 91 98 100 100 100 100 99 92 77 68 63 57 58 58 64 72 70 75 74 74 79 75 82 84 82 72 73 75 79 79 85 89 86 84 82 77 75 74 74 71
81 88 94 98 100 100 100 100 95 70 63 58 56 54 51 52 52 58 70 67 66 60 58 61 68 75 63 62 64 66 64 64 67 77 82 87 87 84 80 81 80 75 78

GFSMW_sfc_rhum_282.txt.gz
RH
19 20 27 28 30 35 37 44 53 62 60 59 63 63 60 61 65 57 59 60 60 63 65 68 64 63 60 59 59 62 65 66 64 70 65 68 71 72 69 70 62 60 58
20 22 23 27 34 34 40 38 45 56 60 62 69 68 66 59 51 57 60 60 63 63 64 66 68 65 61 65 64 66 66 65 63 65 88 84 78 69 65 64 67 74 90
22 22 22 27 29 32 37 36 40 50 62 73 71 75 76 73 64 50 60 59 62 65 66 67 67 68 68 67 67 70 67 68 65 67 80 96 85 84 88 92 94 88 95
19 18 19 22 24 28 34 34 37 47 60 73 78 86 88 91 82 69 63 55 63 64 66 68 70 72 68 71 70 70 72 72 86 85 71 73 85 93 96 93 95 85 86
21 21 21 20 20 25 28 39 38 41 70 75 80 82 90 87 84 81 74 63 68 66 63 67 69 76 75 72 73 76 78 76 88 81 84 86 86 94 97 91 98 97 95
21 22 22 22 22 24 32 36 40 40 73 79 81 86 92 94 90 89 91 87 73 68 72 66 71 74 78 77 78 78 82 83 82 82 91 94 94 91 96 96 95 95 94
25 23 21 22 25 28 31 32 37 42 76 82 86 88 92 94 92 94 96 96 96 97 98 93 85 86 85 85 86 89 88 92 91 96 97 98 98 98 98 98 98 97 96
24 20 19 25 24 27 32 38 35 37 74 81 85 86 90 94 94 94 96 96 97 98 96 97 98 98 97 98 97 98 97 95 97 96 96 97 97 96 98 99 98 98 97
21 18 17 26 28 28 34 42 37 37 68 81 87 89 90 92 94 94 94 95 94 94 95 96 96 97 98 98 98 98 98 97 98 98 97 97 97 96 98 98 97 99 98
19 18 18 26 26 29 35 40 40 48 62 80 87 90 90 89 90 92 94 94 92 93 92 92 94 96 96 95 95 96 97 97 98 96 94 94 95 94 94 94 92 87 92
20 18 19 24 25 30 32 36 48 63 72 87 87 91 92 88 88 90 91 93 93 92 94 92 92 93 93 96 95 94 96 93 90 82 79 80 77 83 86 89 79 79 82
21 22 24 25 27 32 34 39 68 79 89 89 90 91 89 87 86 86 87 88 91 91 93 92 91 92 95 90 88 92 93 86 83 78 77 77 68 75 74 76 76 79 74
22 31 28 26 26 31 39 42 61 77 86 86 90 91 90 90 87 85 85 85 86 87 88 87 91 90 90 88 89 84 84 84 79 77 77 76 76 76 73 72 72 71 63
31 33 32 30 30 33 41 47 63 77 86 86 89 92 92 91 90 86 85 85 84 87 88 90 90 90 90 89 80 79 79 77 79 81 78 75 74 74 69 69 71 66 71
36 34 32 32 29 39 44 55 67 80 84 87 90 93 92 90 90 92 90 89 89 89 89 94 96 97 96 95 96 91 90 86 83 81 74 82 75 72 76 63 67 68 72
35 30 28 27 30 41 47 64 75 83 84 88 91 93 94 95 96 98 96 90 90 90 90 94 96 97 98 96 96 96 96 90 86 84 80 76 76 80 68 67 72 70 68
29 24 22 26 45 52 64 74 78 80 85 93 95 97 97 99 99 98 96 97 98 91 92 92 92 94 95 92 89 84 67 67 66 64 58 49 58 76 69 66 66 64 68
36 30 25 54 61 60 68 75 76 82 94 97 98 98 98 99 98 97 97 96 94 96 96 93 90 90 88 85 81 73 62 60 59 60 57 63 69 73 74 67 64 61 61
76 55 43 54 62 69 72 78 87 95 95 98 99 99 99 98 97 96 95 90 91 90 84 76 71 77 77 74 74 56 53 47 49 67 72 69 71 72 71 71 73 73 69
62 73 51 58 68 75 79 89 95 95 98 99 99 97 97 98 97 98 98 85 81 74 62 66 68 68 70 74 72 64 60 64 53 56 56 73 71 71 71 76 76 80 80
55 56 62 69 75 80 86 95 96 98 95 94 92 94 92 84 80 79 75 69 63 63 65 64 63 64 71 72 74 73 65 72 64 69 74 70 71 69 70 70 75 77 76
63 62 72 79 81 79 85 95 96 98 93 92 91 92 86 76 73 72 67 63 65 66 68 69 74 71 66 70 73 72 71 72 73 80 83 85 68 68 67 75 73 72 82
68 71 81 84 83 89 89 92 99 93 93 91 88 82 76 69 68 74 72 73 68 73 72 75 81 78 75 76 72 72 71 71 81 80 84 76 70 72 80 74 76 81 86
73 75 79 83 92 92 93 96 97 92 82 82 78 73 69 70 67 67 68 73 79 80 81 84 84 83 80 77 76 78 81 74 81 84 89 85 83 84 83 83 82 82 84
91 80 86 91 96 96 97 97 96 88 80 73 68 66 63 64 67 72 78 76 75 72 79 83 82 86 86 81 68 71 81 82 81 88 86 86 86 86 84 81 78 80 78
84 88 91 93 97 95 94 91 82 63 61 60 57 60 60 62 64 83 81 65 63 54 53 57 69 80 60 58 60 62 63 64 69 82 87 89 89 89 86 86 85 83 84

GFSMW_sfc_rhum_285.txt.gz
RH
28 28 28 33 28 32 35 34 31 36 74 75 77 81 88 91 90 77 66 76 80 74 74 69 68 73 69 65 64 62 58 64 62 70 63 70 56 54 53 53 53 60 63
27 23 25 30 33 36 35 32 31 34 76 74 75 76 83 86 85 84 79 65 61 71 76 71 71 69 68 68 66 66 65 60 60 68 86 88 68 71 68 72 70 67 86
26 25 25 32 35 36 42 30 35 42 79 77 72 72 72 78 79 84 88 82 78 71 71 66 69 72 72 71 67 68 66 71 68 64 88 96 90 84 88 87 94 94 96
28 27 30 31 32 35 41 34 42 43 75 79 81 86 82 86 82 83 80 87 86 85 74 77 70 75 75 75 72 68 69 73 77 85 67 82 90 90 93 95 92 95 94
30 31 31 31 32 35 43 40 44 38 86 85 85 84 85 85 85 83 84 89 90 92 96 95 91 87 84 78 77 75 75 74 81 80 82 76 73 94 96 95 90 97 95
28 24 26 28 31 36 42 41 42 40 90 90 88 87 87 91 92 89 92 94 92 91 91 90 93 96 89 86 81 80 79 82 84 81 85 81 88 86 89 92 93 94 94
24 30 26 34 32 37 43 38 43 47 89 87 92 93 93 90 90 92 94 94 94 94 95 94 94 95 95 94 87 88 88 88 90 90 90 87 96 96 97 98 98 98 99
18 19 26 34 32 36 47 50 50 61 67 83 90 94 93 92 92 92 94 94 95 94 92 92 92 93 94 95 96 97 96 94 95 92 93 96 95 96 96 97 98 100 99
21 22 21 26 34 42 47 66 72 79 88 92 88 89 90 91 93 93 93 94 93 91 90 93 91 90 91 94 96 96 96 97 97 99 98 98 99 98 97 98 97 94 99
25 27 30 37 41 43 53 78 75 82 88 88 88 88 91 90 90 91 93 92 92 90 90 91 92 91 90 91 93 96 94 95 96 96 95 96 97 96 95 95 93 94 95
28 37 37 36 42 46 59 76 75 74 89 90 89 91 91 89 88 90 91 90 90 89 88 87 88 90 91 92 92 92 91 94 95 95 95 95 96 96 94 90 87 87 88
32 41 38 36 39 53 60 72 74 78 87 88 89 91 90 88 90 90 91 88 89 88 88 87 87 88 88 90 91 93 91 92 95 93 90 92 86 91 88 79 75 72 73
43 43 42 38 41 54 68 73 82 88 87 86 89 90 91 91 93 94 94 90 87 88 87 88 91 91 92 89 90 91 95 96 95 93 91 88 84 80 71 68 71 74 67
42 42 41 42 55 60 73 77 82 81 85 86 89 96 96 97 97 96 98 97 96 89 88 89 92 96 96 95 94 90 90 92 95 95 95 91 87 85 74 64 67 63 74
46 46 38 46 60 75 76 78 77 85 84 88 95 97 99 98 98 97 96 94 92 93 92 93 94 97 97 97 98 97 97 97 94 90 85 91 86 85 86 74 76 69 71
66 63 61 60 67 70 76 77 81 85 86 95 98 98 98 98 98 97 98 97 88 88 88 93 92 94 97 88 96 93 97 92 88 83 85 82 86 85 82 72 74 75 71
69 72 68 70 72 75 78 86 86 90 95 96 98 98 97 97 98 97 88 88 90 88 87 88 87 87 83 75 71 75 72 72 70 71 71 70 72 78 74 70 72 71 69
78 75 78 83 82 77 80 82 87 94 96 97 98 96 96 96 95 89 93 92 88 86 87 86 84 86 80 77 71 71 62 72 74 74 72 73 74 74 75 76 72 70 69
62 75 81 82 77 78 83 83 84 88 89 93 96 96 95 94 91 91 89 88 89 87 84 82 79 77 78 75 72 68 68 61 66 66 71 72 73 72 71 74 76 77 75
57 75 80 77 82 83 79 80 82 86 91 92 95 95 82 86 87 87 85 83 82 78 70 68 69 72 73 73 73 69 70 73 69 69 72 78 73 72 70 79 80 84 83
87 87 92 92 83 81 77 83 90 94 94 92 88 84 84 83 85 81 77 74 69 70 76 74 71 69 70 70 72 72 69 74 76 79 82 84 70 70 71 77 74 78 81
94 97 91 82 81 80 83 89 94 92 91 80 80 81 81 77 77 82 78 72 78 78 74 75 76 74 68 70 72 72 72 73 79 86 90 75 69 70 72 75 71 75 87
94 94 94 87 87 82 82 93 94 83 81 82 84 85 77 68 65 67 68 73 68 78 80 80 82 79 72 72 71 73 73 72 82 83 74 71 72 74 82 73 72 84 90
98 89 78 87 93 90 92 97 95 90 88 86 82 77 77 77 74 70 69 72 76 78 77 79 84 82 77 74 74 78 81 76 82 85 87 89 83 88 89 87 83 85 86
89 86 89 93 96 95 96 95 90 86 84 84 78 78 77 78 78 76 80 76 73 68 77 83 82 86 86 81 69 71 81 83 84 88 91 88 88 88 86 84 81 82 82
90 90 90 92 92 87 86 82 76 71 71 71 68 70 66 69 77 88 84 59 61 56 60 64 72 86 64 62 65 68 70 70 74 85 90 91 91 91 89 89 88 85 86

GFSMW_sfc_rhum_288.txt.gz
RH
30 29 29 30 34 33 33 34 57 85 78 74 74 68 76 83 84 78 80 84 85 88 93 85 75 77 76 82 85 88 86 76 70 87 70 64 61 62 60 60 57 55 52
28 29 32 35 39 43 37 38 50 92 85 78 76 84 77 81 83 79 79 79 84 88 92 94 90 86 81 78 78 78 84 82 74 79 94 83 69 67 59 56 58 62 72
33 31 31 38 39 46 46 42 44 91 89 83 75 73 73 75 77 79 80 79 81 86 90 90 91 96 94 84 86 86 81 80 82 85 82 95 82 76 67 77 82 84 90
28 32 34 34 38 42 45 44 45 92 81 88 85 91 92 85 79 82 79 80 84 84 83 88 90 92 97 97 93 89 90 88 84 91 85 74 88 90 87 96 96 96 97
30 29 31 32 34 42 49 49 51 93 94 95 95 92 80 80 77 80 83 85 86 85 85 86 90 92 94 95 97 95 93 94 90 85 88 88 85 89 95 94 95 96 98
24 27 30 32 36 46 52 54 64 79 88 92 91 93 81 84 81 86 89 92 90 90 89 86 91 90 90 93 95 97 96 93 94 93 88 85 88 84 85 96 97 92 100
25 25 27 33 42 54 65 65 75 85 88 89 88 89 91 88 87 89 92 93 93 94 93 92 92 92 90 92 93 94 96 98 96 90 89 86 84 82 80 82 88 98 99
26 28 33 41 46 61 79 82 82 87 89 87 91 90 89 91 88 91 92 93 94 94 91 91 91 90 90 89 89 94 96 96 97 96 94 89 87 84 85 86 89 100 100
31 33 46 44 51 74 89 89 78 85 93 92 93 89 88 89 91 91 92 94 93 91 90 90 90 89 90 90 90 93 94 94 96 98 97 97 95 97 97 96 94 86 99
24 36 40 45 54 78 89 83 77 88 96 78 83 86 88 88 89 90 93 93 94 91 89 88 88 88 88 88 90 92 89 91 95 95 94 95 97 96 96 96 94 97 95
27 44 43 43 58 78 85 84 86 88 91 78 81 88 90 90 92 96 96 97 97 97 91 89 89 90 90 88 89 90 89 90 92 94 93 96 96 98 96 96 95 96 97
48 49 45 47 68 79 82 86 86 77 85 87 89 93 93 87 91 95 96 97 98 100 96 89 91 92 93 94 91 92 90 91 93 94 93 95 96 98 98 97 97 96 96
64 68 62 57 72 81 82 83 80 78 86 87 94 96 88 87 93 95 96 96 97 97 97 96 95 96 96 96 96 96 96 97 95 96 95 95 95 96 97 96 95 91 89
60 65 75 72 83 80 79 79 76 85 87 92 95 93 90 90 95 97 96 96 97 94 94 96 96 92 94 96 94 92 95 96 95 93 93 94 94 95 95 94 96 90 87
59 71 79 84 79 82 79 79 81 87 91 94 95 96 87 89 90 94 96 92 93 95 95 92 87 85 82 86 95 90 86 85 86 87 84 89 90 90 84 81 78 78 86
52 46 65 81 76 82 86 79 82 92 93 90 94 85 85 87 91 93 85 84 87 92 90 91 88 88 86 79 77 79 82 78 79 83 83 79 83 82 72 70 71 75 77
60 59 54 70 88 90 89 87 85 84 86 86 80 82 85 90 96 98 91 87 90 88 88 87 87 86 82 75 74 74 80 75 77 75 74 72 72 79 72 69 70 72 76
71 66 66 77 88 93 84 77 78 75 81 84 86 84 87 93 95 93 88 89 87 86 88 86 84 85 76 72 74 71 68 71 74 82 73 76 78 74 76 74 72 70 72
66 81 80 89 95 97 78 75 74 74 79 85 92 92 88 84 85 87 88 86 90 87 83 78 76 75 75 71 72 70 70 70 75 75 77 74 76 78 77 76 77 78 78
95 96 97 97 99 81 71 75 81 86 92 91 89 83 85 88 90 90 88 83 80 77 67 66 70 71 72 70 70 70 71 76 73 74 68 73 72 74 74 76 77 86 86
94 94 99 94 84 76 78 86 87 93 88 80 78 78 79 81 83 82 79 81 74 68 70 68 71 68 69 71 70 71 70 74 74 75 75 71 72 73 73 75 74 80 79
91 94 89 88 88 82 81 88 94 90 86 78 75 78 78 70 69 72 69 65 69 68 70 72 75 73 68 69 71 72 72 73 78 81 80 78 73 73 75 76 74 77 83
80 78 84 89 91 88 88 93 94 82 79 80 90 88 81 72 67 70 68 69 68 73 73 74 80 78 73 73 72 74 76 74 82 79 76 75 75 76 84 76 76 84 88
91 81 83 90 96 95 94 97 95 95 93 91 92 86 83 77 70 67 65 69 76 81 81 81 85 83 79 78 80 82 86 81 84 87 89 89 85 87 89 87 85 86 87
90 90 94 94 95 92 92 91 90 87 84 81 77 80 85 82 78 72 77 73 77 73 83 85 84 88 92 88 77 80 88 88 86 92 92 90 90 90 88 86 83 84 83
89 91 92 94 94 92 91 88 83 74 73 66 65 68 66 69 68 74 74 62 65 64 65 67 74 85 73 73 74 75 74 75 79 87 92 92 92 92 90 90 89 85 87